Regional Weather Roundup
Issued by NWS

Home | Current Version | Previous Version | Graphics & Text | Print | Product List | Glossary Off
Versions: 1 2 3 4 5 6 7 8 9 10 11 12 13 14 15 16 17 18 19 20 21 22 23 24 25 26 27 28 29 30 31 32 33 34 35 36 37 38 39 40 41 42 43 44 45 46 47 48 49 50

000
ASUS43 KMKX 182211
RWRWI

WISCONSIN REGIONAL WEATHER ROUNDUP
NATIONAL WEATHER SERVICE MILWAUKEE/SULLIVAN WI
500 PM CDT FRI AUG 18 2017

NOTE: "FAIR" INDICATES FEW OR NO CLOUDS BELOW 12,000 FEET WITH NO
SIGNIFICANT WEATHER AND/OR OBSTRUCTIONS TO VISIBILITY.

WIZ001-002-006>008-014>016-023>028-182300-
NORTHWEST WISCONSIN

CITY           SKY/WX    TMP DP  RH WIND       PRES   REMARKS
SUPERIOR ARPT    N/A     71  66  83 SW7       29.83S
ASHLAND        CLOUDY    71  61  70 SW6       29.84F
HAYWARD        CLOUDY    69  60  73 W3        29.86F
SIREN          PTSUNNY   69  63  82 W7        29.88S
CUMBERLAND     CLOUDY    66  61  82 W5        29.88F
RICE LAKE      CLOUDY    68  62  81 W5        29.89F
CHETEK         CLOUDY    69  63  82 CALM      29.87F
LADYSMITH      PTSUNNY   70  59  69 W3        29.89S
EAU CLAIRE     MOSUNNY   69  63  81 W8        29.87S
MENOMONIE      CLOUDY    70  64  81 SW7       29.88S
NEW RICHMOND   PTSUNNY   69  61  76 SW5       29.89F
OSCEOLA        CLOUDY    71  63  76 W3        29.91S
$$

WIZ003>005-009-010-017-018-182300-
NORTH CENTRAL WISCONSIN

CITY           SKY/WX    TMP DP  RH WIND       PRES   REMARKS
MANITOWISH WTR CLOUDY    67  57  69 NW7       29.86S
ARBOR VITAE    CLOUDY    67  57  69 W5        29.85S
WOODRUFF       CLOUDY    67  57  69 W5        29.85S
RHINELANDER    CLOUDY    68  57  68 NW8       29.86S
EAGLE RIVER    PTSUNNY   66  54  63 N5        29.85S
LAND O LAKES   MOSUNNY   67  54  63 NW6       29.87S
PHILLIPS       CLOUDY    68  60  74 CALM      29.86S
TOMAHAWK         N/A     67  57  71 W3        29.86S
MEDFORD        CLOUDY    66  58  76 W8        29.87S
MERRILL        MOSUNNY   66  61  82 W5        29.86S
$$

WIZ029-030-035-036-043>047-182300-
CENTRAL WISCONSIN

CITY           SKY/WX    TMP DP  RH WIND       PRES   REMARKS
WAUSAU         MOSUNNY   67  58  72 NW15      29.84R
MOSINEE        CLOUDY    66  61  82 NW10G17   29.87R
MARSHFIELD     CLOUDY    68  59  73 W9        29.86S
STEVENS POINT  CLOUDY    67  60  77 W7        29.86S
WAUPACA        CLOUDY    73  58  60 W7        29.85R
WAUTOMA        CLOUDY    73  61  65 W13G18    29.85S
WISC RAPIDS    CLOUDY    70  60  70 NW12      29.87S
CAMP DOUGLAS   CLOUDY    70  63  78 W7        29.87F
$$

WIZ011>013-019>022-031-037>040-048>050-182300-
NORTHEAST WISCONSIN

CITY           SKY/WX    TMP DP  RH WIND       PRES   REMARKS
ANTIGO         CLOUDY    67  57  70 NW7       29.85S
SHAWANO        CLOUDY    73  60  64 W6        29.82R
OCONTO         CLOUDY    71  58  64 NW5       29.79S
STURGEON BAY   CLOUDY    69  60  73 NW6       29.81R
GREEN BAY      PTSUNNY   71  63  75 W9        29.82R
MANITOWOC      CLOUDY    71  59  65 W13       29.82S
APPLETON       PTSUNNY   72  57  60 W12       29.82S
CLINTONVILLE   MOSUNNY   70  57  64 NW12      29.83S
OSHKOSH        MOSUNNY   73  59  61 NW14      29.83R
$$

WIZ032>034-041-042-053>061-182300-
SOUTHWEST WISCONSIN

CITY           SKY/WX    TMP DP  RH WIND       PRES   REMARKS
LA CROSSE      CLOUDY    72  63  73 NW8       29.89S
SPARTA         CLOUDY    68  62  79 W6        29.90R
VIROQUA        CLOUDY    67  63  86 W6        29.92R
BOSCOBEL       CLOUDY    73  61  65 W5        29.90S
PRAIRIE DU CHI CLOUDY    72  57  60 NW6       29.90S
PLATTEVILLE    MOSUNNY   73  63  70 NW12      29.90S
$$

WIZ056-057-062-063-064-067-068-182300-
SOUTH CENTRAL WISCONSIN

CITY           SKY/WX    TMP DP  RH WIND       PRES   REMARKS
REEDSBURG      CLOUDY    72  59  64 W9        29.88S
BARABOO/DELLS  CLOUDY    71  56  57 NW9       29.88S
LONE ROCK      CLOUDY    72  61  68 W9        29.88S
MINERAL POINT  CLOUDY    72  63  73 W10       29.91S
MADISON        CLOUDY    73  59  61 W9        29.87R
MIDDLETON      CLOUDY    73  60  61 NW12G18   29.88S
WATERTOWN      CLOUDY    74  61  64 W8        29.86R
MONROE         PTSUNNY   75  59  57 W12       29.88S
JANESVILLE     PTSUNNY   79  63  57 W8        29.86S HX  80
$$

WIZ051-052-058>065-066-070>072-182300-
SOUTHEAST WISCONSIN

CITY           SKY/WX    TMP DP  RH WIND       PRES   REMARKS
MILWAUKEE      PTSUNNY   79  60  52 W10       29.84R HX  80
WAUKESHA       PTSUNNY   73  59  60 W10       29.86S
MILWAUKEE/TIMM PTSUNNY   75  57  53 W9        29.85S
RACINE         PTSUNNY   77  61  57 W10       29.86S
KENOSHA        MOSUNNY   77  62  59 W12       29.85S
FOND DU LAC    PTSUNNY   75  58  55 NW10      29.84R
SHEBOYGAN      PTSUNNY   74  62  66 NW8       29.83R
WEST BEND      CLOUDY    73  61  64 NW9       29.84S
JUNEAU         CLOUDY    73  60  65 SW9       29.87R
$$

LSZ147-162-182300-
LAKE SUPERIOR

STATION/POSITION TIME  TEMP    WIND        PRES    WAVE
                       AIR SEA DIR/SP/G            HT/PER
                 (UTC) (F)     (DEG/KT/KT) (MB)    (FT/S)
W MID LAKE BUOY  2150   61 60  260/ 14/ 16 1009.3R   2/ 3
DEVILS ISLAND    2200   65     230/  7/  9 1009.6F
SAXON HARBOR     2130   71      50/  2/  2 1010.2S
$$

LMZ867-665-643>646-182300-
LAKE MICHIGAN

STATION/POSITION TIME  TEMP    WIND        PRES    WAVE
                       AIR SEA DIR/SP/G            HT/PER
                 (UTC) (F)     (DEG/KT/KT) (MB)    (FT/S)
S GREEN BAY BUOY 2200   71 71  280/ 10/ 12 1008.8
N MID LAKE BUOY  2150   66 67  310/ 14/ 16 1008.5F   2/ 4
NORTHPORT PIER   2140   69     320/ 19/ 21 1008.1F
KEWAUNEE LAKESHO 2148   71     280/  7/ 10 1008.6R
SHEBOYGAN LAKESH 2200   73     290/ 14/ 16 1009.7R
PORT WASHINGTON  2140   78     290/  2/  7 1010.8S
ATWATER BUOY     2139   74     280/ 10/ 12 1010.5S
MILWAUKEE LAKESH 2150   76     270/ 11/ 13   N/A
S MID LAKE BUOY  2150   71 71  260/  2/  4 1010.5F   2/ 5
KENOSHA   LAKESH 2200   78     280/ 11/ 17 1010.2
$$

TC  - TEMPERATURE IN CELSIUS
VSB - VISIBILITY IN STATUTE MILES
WCI - WIND CHILL INDEX
HX  - HEAT INDEX




USA.gov is the U.S. government's official web portal to all federal, state and local government web resources and services.